Steamboat Springs, CO

5:52 PM MDT on August 19, 2017 (GMT -0600)
Steamboat Springs-Adams

Weather History for KSBS - March, 2014

Change the Weather History Date:

Wednesday, March 12, 2014

  Actual Average Record
Temperature  
Mean Temperature 22 °F -  
Max Temperature 39 °F 41 °F 61 °F (1922)
Min Temperature 4 °F 15 °F -32 °F (1932)
Degree Days  
Heating Degree Days 44    
Moisture  
Dew Point 3 °F    
Average Humidity 54    
Maximum Humidity 84    
Minimum Humidity 19    
Precipitation  
Precipitation 0.00 in - - ()
Sea Level Pressure  
Sea Level Pressure 30.33 in    
Wind  
Wind Speed 0 mph (SE)    
Max Wind Speed 5 mph    
Max Gust Speed -    
Visibility 10 miles    
Events      
Averages and records for this station are not official NWS values.
T = Trace of Precipitation, MM = Missing Value Source: NWS Daily Summary

Daily Weather History Graph

Daily Weather History Graph

Search for Another Location

Airport or City:

Trip Planner

Search our weather history database for the weather conditions in past years. The results will help you decide how hot, cold, wet, or windy it might be!

Date:

Astronomy

Mar. 12, 2014 Rise Set
Actual Time 7:23 AM MDT 7:11 PM MDT
Civil Twilight 6:56 AM MDT 7:38 PM MDT
Nautical Twilight 6:25 AM MDT 8:10 PM MDT
Astronomical Twilight 5:53 AM MDT 8:42 PM MDT
Moon 3:43 PM MDT (3/12) 4:58 AM MDT (3/12)
Length of Visible Light 12h 41m
Length of Day
11h 47m
Waxing Gibbous, 86% of the Moon is Illuminated
Mar 12
Waxing Gibbous
Mar 16
Full
Mar 23
Last Quarter
Mar 30
New
Apr 7
First Quarter

Hourly Weather History & Observations

Time (MDT) Temp. Windchill Dew Point Humidity Pressure Visibility Wind Dir Wind Speed Gust Speed Precip Events Conditions
12:15 AM 14.9 °F - 7.9 °F 74% 30.32 in 10.0 mi Calm Calm - N/A   Clear
12:35 AM 15.1 °F 9.4 °F 6.1 °F 68% 30.31 in 10.0 mi SE 3.5 mph - N/A   Clear
12:55 AM 11.8 °F - 5.4 °F 75% 30.32 in 10.0 mi Calm Calm - N/A   Clear
1:14 AM 11.1 °F - 5.5 °F 78% 30.32 in 10.0 mi Calm Calm - N/A   Clear
1:35 AM 13.1 °F - 5.9 °F 73% 30.32 in 10.0 mi Calm Calm - N/A   Clear
1:55 AM 11.1 °F - 5.5 °F 78% 30.32 in 10.0 mi Calm Calm - N/A   Clear
2:15 AM 10.9 °F - 6.3 °F 81% 30.33 in 10.0 mi Calm Calm - N/A   Clear
2:35 AM 12.9 °F - 5.7 °F 73% 30.33 in 10.0 mi Calm Calm - N/A   Clear
2:55 AM 10.4 °F - 3.9 °F 75% 30.33 in 10.0 mi Calm Calm - N/A   Clear
3:13 AM 10.4 °F - 4.6 °F 78% 30.33 in 10.0 mi Calm Calm - N/A   Clear
3:35 AM 9.7 °F - 4.1 °F 78% 30.32 in 10.0 mi Calm Calm - N/A   Clear
3:55 AM 8.1 °F - 4.1 °F 84% 30.34 in 10.0 mi Calm Calm - N/A   Clear
4:15 AM 10.0 °F - 5.7 °F 83% 30.34 in 10.0 mi Calm Calm - N/A   Clear
4:35 AM 6.4 °F - 1.6 °F 80% 30.34 in 10.0 mi Calm Calm - N/A   Clear
4:55 AM 7.9 °F - 3.6 °F 83% 30.34 in 10.0 mi Calm Calm - N/A   Clear
5:15 AM 6.6 °F - 2.3 °F 82% 30.34 in 10.0 mi Calm Calm - N/A   Clear
5:35 AM 7.0 °F 0.1 °F 0.7 °F 75% 30.35 in 10.0 mi East 3.5 mph - N/A   Clear
5:55 AM 6.3 °F - 1.4 °F 80% 30.35 in 10.0 mi Calm Calm - N/A   Clear
6:14 AM 4.5 °F - -0.8 °F 79% 30.36 in 10.0 mi Calm Calm - N/A   Clear
6:35 AM 5.9 °F - 1.4 °F 82% 30.37 in 10.0 mi Calm Calm - N/A   Clear
6:54 AM 6.1 °F - 0.9 °F 79% 30.37 in 10.0 mi Calm Calm - N/A   Clear
7:15 AM 4.1 °F - -1.5 °F 78% 30.38 in 10.0 mi Calm Calm - N/A   Clear
7:35 AM 4.1 °F - -1.5 °F 78% 30.38 in 10.0 mi Calm Calm - N/A   Clear
7:55 AM 4.1 °F -3.2 °F -1.1 °F 79% 30.40 in 10.0 mi ESE 3.5 mph - N/A   Clear
8:15 AM 4.1 °F - -0.9 °F 80% 30.40 in 10.0 mi Calm Calm - N/A   Clear
8:35 AM 5.9 °F - -0.6 °F 75% 30.40 in 10.0 mi Calm Calm - N/A   Clear
8:55 AM 8.1 °F - 1.0 °F 73% 30.40 in 10.0 mi Calm Calm - N/A   Clear
9:15 AM 8.4 °F - 0.1 °F 69% 30.41 in 10.0 mi Calm Calm - N/A   Clear
9:35 AM 9.3 °F - 0.7 °F 68% 30.41 in 10.0 mi Calm Calm - N/A   Clear
9:55 AM 13.5 °F - 2.1 °F 61% 30.41 in 10.0 mi Calm Calm - N/A   Clear
10:15 AM 13.6 °F - 1.4 °F 58% 30.41 in 10.0 mi Calm Calm - N/A   Clear
10:35 AM 15.8 °F - 1.4 °F 53% 30.40 in 10.0 mi Calm Calm - N/A   Clear
10:55 AM 18.9 °F - 2.3 °F 49% 30.40 in 10.0 mi Calm Calm - N/A   Clear
11:15 AM 19.4 °F - 3.7 °F 51% 30.39 in 10.0 mi Calm Calm - N/A   Clear
11:35 AM 22.8 °F - 3.6 °F 44% 30.38 in 10.0 mi Calm Calm - N/A   Clear
11:55 AM 23.2 °F - 5.2 °F 46% 30.38 in 10.0 mi Calm Calm - N/A   Clear
12:15 PM 25.3 °F - 4.3 °F 41% 30.37 in 10.0 mi Calm Calm - N/A   Clear
12:35 PM 27.1 °F - 5.9 °F 41% 30.37 in 10.0 mi Calm Calm - N/A   Clear
12:55 PM 28.9 °F - 5.0 °F 36% 30.36 in 10.0 mi Calm Calm - N/A   Clear
1:15 PM 31.8 °F - 5.5 °F 33% 30.35 in 10.0 mi Calm Calm - N/A   Clear
1:35 PM 32.0 °F - 6.3 °F 34% 30.34 in 10.0 mi Calm Calm - N/A   Clear
1:55 PM 33.4 °F - 5.0 °F 30% 30.33 in 10.0 mi Calm Calm - N/A   Clear
2:15 PM 35.1 °F - 4.5 °F 28% 30.32 in 10.0 mi Calm Calm - N/A   Clear
2:35 PM 35.6 °F - 4.1 °F 27% 30.31 in 10.0 mi Calm Calm - N/A   Clear
2:55 PM 35.8 °F - 3.6 °F 26% 30.30 in 10.0 mi Calm Calm - N/A   Clear
3:15 PM 37.4 °F - 3.7 °F 24% 30.30 in 10.0 mi Calm Calm - N/A   Clear
3:35 PM 37.6 °F - 3.4 °F 24% 30.29 in 10.0 mi Calm Calm - N/A   Clear
3:55 PM 37.8 °F - -0.9 °F 20% 30.29 in 10.0 mi Calm Calm - N/A   Clear
4:15 PM 37.9 °F - -1.8 °F 19% 30.28 in 10.0 mi Calm Calm - N/A   Clear
4:35 PM 39.6 °F - -0.6 °F 19% 30.27 in 10.0 mi Calm Calm - N/A   Clear
4:55 PM 38.3 °F - -0.0 °F 20% 30.27 in 10.0 mi Calm Calm - N/A   Clear
5:15 PM 37.4 °F - 2.1 °F 23% 30.27 in 10.0 mi Calm Calm - N/A   Clear
5:35 PM 36.7 °F - -0.9 °F 20% 30.26 in 10.0 mi Calm Calm - N/A   Clear
6:55 PM 34.0 °F - -2.2 °F 21% 30.25 in 10.0 mi Calm Calm - N/A   Clear
7:15 PM 32.0 °F - -6.0 °F 19% 30.25 in 10.0 mi Calm Calm - N/A   Clear
7:35 PM 29.8 °F - -2.6 °F 25% 30.26 in 10.0 mi Calm Calm - N/A   Clear
7:55 PM 28.6 °F 23.5 °F 3.2 °F 34% 30.26 in 10.0 mi SSE 4.6 mph - N/A   Clear
8:15 PM 25.7 °F 21.5 °F 4.3 °F 40% 30.26 in 10.0 mi SE 3.5 mph - N/A   Clear
8:35 PM 27.5 °F - 2.7 °F 35% 30.26 in 10.0 mi Calm Calm - N/A   Clear
9:15 PM 24.8 °F - 6.1 °F 45% 30.26 in 10.0 mi Calm Calm - N/A   Clear
9:35 PM 23.9 °F - 5.5 °F 46% 30.26 in 10.0 mi Calm Calm - N/A   Clear
9:55 PM 24.6 °F - 4.6 °F 42% 30.26 in 10.0 mi Calm Calm - N/A   Clear
10:15 PM 23.4 °F - 4.3 °F 44% 30.26 in 10.0 mi Calm Calm - N/A   Clear
10:35 PM 22.1 °F - 4.8 °F 48% 30.26 in 10.0 mi Calm Calm - N/A   Clear
10:55 PM 21.6 °F - 6.3 °F 52% 30.26 in 10.0 mi Calm Calm - N/A   Clear
11:15 PM 20.1 °F - 5.7 °F 54% 30.26 in 10.0 mi Calm Calm - N/A   Clear
11:35 PM 20.3 °F - 5.2 °F 52% 30.25 in 10.0 mi Calm Calm - N/A   Clear
11:55 PM 20.7 °F - 5.0 °F 51% 30.25 in 10.0 mi Calm Calm - N/A   Clear